<?xml version="1.0"?>
<gpx xmlns="http://www.topografix.com/GPX/1/1" xmlns:xsi="http://www.w3.org/2001/XMLSchema-instance" version="1.1" creator="GPX RubyGem 1.0.0 -- http://dougfales.github.io/gpx/" xsi:schemaLocation="http://www.topografix.com/GPX/1/1 http://www.topografix.com/GPX/1/1/gpx.xsd">
  <metadata>
    <name/>
    <time>2026-05-07T17:46:32+00:00</time>
    <bound minlat="90.0" minlon="180.0" maxlat="-90.0" maxlon="-180.0"/>
  </metadata>
  <trk>
    <name/>
    <trkseg>
      <trkpt lat="47.323134" lon="12.974494">
        <time>1970-01-01T00:00:00+00:00</time>
        <ele>1064.0</ele>
      </trkpt>
      <trkpt lat="47.323137" lon="12.974491">
        <time>1970-01-01T00:00:00+00:00</time>
        <ele>1064.0</ele>
      </trkpt>
      <trkpt lat="47.323425" lon="12.974212">
        <time>1970-01-01T00:00:00+00:00</time>
        <ele>1065.0</ele>
      </trkpt>
      <trkpt lat="47.323478" lon="12.974072">
        <time>1970-01-01T00:00:00+00:00</time>
        <ele>1066.0</ele>
      </trkpt>
      <trkpt lat="47.323575" lon="12.973249">
        <time>1970-01-01T00:00:00+00:00</time>
        <ele>1071.0</ele>
      </trkpt>
      <trkpt lat="47.323647" lon="12.972895">
        <time>1970-01-01T00:00:00+00:00</time>
        <ele>1074.0</ele>
      </trkpt>
      <trkpt lat="47.323654" lon="12.9728">
        <time>1970-01-01T00:00:00+00:00</time>
        <ele>1075.0</ele>
      </trkpt>
      <trkpt lat="47.323593" lon="12.972559">
        <time>1970-01-01T00:00:00+00:00</time>
        <ele>1075.0</ele>
      </trkpt>
      <trkpt lat="47.3236" lon="12.972239">
        <time>1970-01-01T00:00:00+00:00</time>
        <ele>1077.0</ele>
      </trkpt>
      <trkpt lat="47.323605" lon="12.972195">
        <time>1970-01-01T00:00:00+00:00</time>
        <ele>1078.0</ele>
      </trkpt>
      <trkpt lat="47.323598" lon="12.971921">
        <time>1970-01-01T00:00:00+00:00</time>
        <ele>1078.0</ele>
      </trkpt>
      <trkpt lat="47.323654" lon="12.971538">
        <time>1970-01-01T00:00:00+00:00</time>
        <ele>1082.0</ele>
      </trkpt>
      <trkpt lat="47.323627" lon="12.970373">
        <time>1970-01-01T00:00:00+00:00</time>
        <ele>1094.0</ele>
      </trkpt>
      <trkpt lat="47.323609" lon="12.970215">
        <time>1970-01-01T00:00:00+00:00</time>
        <ele>1096.0</ele>
      </trkpt>
      <trkpt lat="47.323567" lon="12.970066">
        <time>1970-01-01T00:00:00+00:00</time>
        <ele>1096.0</ele>
      </trkpt>
      <trkpt lat="47.323477" lon="12.969858">
        <time>1970-01-01T00:00:00+00:00</time>
        <ele>1093.0</ele>
      </trkpt>
      <trkpt lat="47.323457" lon="12.969756">
        <time>1970-01-01T00:00:00+00:00</time>
        <ele>1093.0</ele>
      </trkpt>
      <trkpt lat="47.323464" lon="12.969524">
        <time>1970-01-01T00:00:00+00:00</time>
        <ele>1096.0</ele>
      </trkpt>
      <trkpt lat="47.32354" lon="12.969082">
        <time>1970-01-01T00:00:00+00:00</time>
        <ele>1104.0</ele>
      </trkpt>
      <trkpt lat="47.323562" lon="12.968795">
        <time>1970-01-01T00:00:00+00:00</time>
        <ele>1108.0</ele>
      </trkpt>
      <trkpt lat="47.323513" lon="12.968475">
        <time>1970-01-01T00:00:00+00:00</time>
        <ele>1108.0</ele>
      </trkpt>
      <trkpt lat="47.323481" lon="12.968072">
        <time>1970-01-01T00:00:00+00:00</time>
        <ele>1111.0</ele>
      </trkpt>
      <trkpt lat="47.323508" lon="12.966068">
        <time>1970-01-01T00:00:00+00:00</time>
        <ele>1143.0</ele>
      </trkpt>
      <trkpt lat="47.323488" lon="12.965797">
        <time>1970-01-01T00:00:00+00:00</time>
        <ele>1144.0</ele>
      </trkpt>
      <trkpt lat="47.323412" lon="12.96545">
        <time>1970-01-01T00:00:00+00:00</time>
        <ele>1145.0</ele>
      </trkpt>
      <trkpt lat="47.323437" lon="12.964589">
        <time>1970-01-01T00:00:00+00:00</time>
        <ele>1153.0</ele>
      </trkpt>
      <trkpt lat="47.323419" lon="12.964275">
        <time>1970-01-01T00:00:00+00:00</time>
        <ele>1151.0</ele>
      </trkpt>
      <trkpt lat="47.323434" lon="12.964037">
        <time>1970-01-01T00:00:00+00:00</time>
        <ele>1149.0</ele>
      </trkpt>
      <trkpt lat="47.323564" lon="12.963648">
        <time>1970-01-01T00:00:00+00:00</time>
        <ele>1152.0</ele>
      </trkpt>
      <trkpt lat="47.32364" lon="12.963506">
        <time>1970-01-01T00:00:00+00:00</time>
        <ele>1155.0</ele>
      </trkpt>
      <trkpt lat="47.323693" lon="12.963486">
        <time>1970-01-01T00:00:00+00:00</time>
        <ele>1157.0</ele>
      </trkpt>
      <trkpt lat="47.323719" lon="12.963476">
        <time>1970-01-01T00:00:00+00:00</time>
        <ele>1158.0</ele>
      </trkpt>
      <trkpt lat="47.323777" lon="12.963512">
        <time>1970-01-01T00:00:00+00:00</time>
        <ele>1160.0</ele>
      </trkpt>
      <trkpt lat="47.323802" lon="12.963641">
        <time>1970-01-01T00:00:00+00:00</time>
        <ele>1160.0</ele>
      </trkpt>
      <trkpt lat="47.323806" lon="12.964047">
        <time>1970-01-01T00:00:00+00:00</time>
        <ele>1162.0</ele>
      </trkpt>
      <trkpt lat="47.323898" lon="12.964939">
        <time>1970-01-01T00:00:00+00:00</time>
        <ele>1170.0</ele>
      </trkpt>
      <trkpt lat="47.323974" lon="12.965167">
        <time>1970-01-01T00:00:00+00:00</time>
        <ele>1173.0</ele>
      </trkpt>
      <trkpt lat="47.324511" lon="12.966213">
        <time>1970-01-01T00:00:00+00:00</time>
        <ele>1184.0</ele>
      </trkpt>
      <trkpt lat="47.324909" lon="12.967246">
        <time>1970-01-01T00:00:00+00:00</time>
        <ele>1193.0</ele>
      </trkpt>
      <trkpt lat="47.325113" lon="12.967705">
        <time>1970-01-01T00:00:00+00:00</time>
        <ele>1195.0</ele>
      </trkpt>
      <trkpt lat="47.325379" lon="12.968385">
        <time>1970-01-01T00:00:00+00:00</time>
        <ele>1196.0</ele>
      </trkpt>
      <trkpt lat="47.325424" lon="12.968418">
        <time>1970-01-01T00:00:00+00:00</time>
        <ele>1197.0</ele>
      </trkpt>
      <trkpt lat="47.325462" lon="12.968399">
        <time>1970-01-01T00:00:00+00:00</time>
        <ele>1199.0</ele>
      </trkpt>
      <trkpt lat="47.325482" lon="12.968359">
        <time>1970-01-01T00:00:00+00:00</time>
        <ele>1201.0</ele>
      </trkpt>
      <trkpt lat="47.325475" lon="12.968277">
        <time>1970-01-01T00:00:00+00:00</time>
        <ele>1202.0</ele>
      </trkpt>
      <trkpt lat="47.325384" lon="12.96791">
        <time>1970-01-01T00:00:00+00:00</time>
        <ele>1203.0</ele>
      </trkpt>
      <trkpt lat="47.325279" lon="12.96722">
        <time>1970-01-01T00:00:00+00:00</time>
        <ele>1206.0</ele>
      </trkpt>
      <trkpt lat="47.325263" lon="12.966887">
        <time>1970-01-01T00:00:00+00:00</time>
        <ele>1209.0</ele>
      </trkpt>
      <trkpt lat="47.325267" lon="12.966375">
        <time>1970-01-01T00:00:00+00:00</time>
        <ele>1212.0</ele>
      </trkpt>
      <trkpt lat="47.325285" lon="12.966074">
        <time>1970-01-01T00:00:00+00:00</time>
        <ele>1214.0</ele>
      </trkpt>
      <trkpt lat="47.325227" lon="12.96546">
        <time>1970-01-01T00:00:00+00:00</time>
        <ele>1215.0</ele>
      </trkpt>
      <trkpt lat="47.325176" lon="12.96518">
        <time>1970-01-01T00:00:00+00:00</time>
        <ele>1215.0</ele>
      </trkpt>
      <trkpt lat="47.32516" lon="12.964516">
        <time>1970-01-01T00:00:00+00:00</time>
        <ele>1219.0</ele>
      </trkpt>
      <trkpt lat="47.325122" lon="12.964183">
        <time>1970-01-01T00:00:00+00:00</time>
        <ele>1220.0</ele>
      </trkpt>
      <trkpt lat="47.32518" lon="12.963833">
        <time>1970-01-01T00:00:00+00:00</time>
        <ele>1225.0</ele>
      </trkpt>
      <trkpt lat="47.325164" lon="12.96346">
        <time>1970-01-01T00:00:00+00:00</time>
        <ele>1228.0</ele>
      </trkpt>
      <trkpt lat="47.325359" lon="12.961749">
        <time>1970-01-01T00:00:00+00:00</time>
        <ele>1244.0</ele>
      </trkpt>
      <trkpt lat="47.325379" lon="12.961403">
        <time>1970-01-01T00:00:00+00:00</time>
        <ele>1244.0</ele>
      </trkpt>
      <trkpt lat="47.325498" lon="12.96095">
        <time>1970-01-01T00:00:00+00:00</time>
        <ele>1245.0</ele>
      </trkpt>
      <trkpt lat="47.325583" lon="12.960792">
        <time>1970-01-01T00:00:00+00:00</time>
        <ele>1246.0</ele>
      </trkpt>
      <trkpt lat="47.325807" lon="12.960544">
        <time>1970-01-01T00:00:00+00:00</time>
        <ele>1257.0</ele>
      </trkpt>
      <trkpt lat="47.325878" lon="12.960353">
        <time>1970-01-01T00:00:00+00:00</time>
        <ele>1260.0</ele>
      </trkpt>
      <trkpt lat="47.325977" lon="12.959996">
        <time>1970-01-01T00:00:00+00:00</time>
        <ele>1263.0</ele>
      </trkpt>
      <trkpt lat="47.326019" lon="12.959604">
        <time>1970-01-01T00:00:00+00:00</time>
        <ele>1262.0</ele>
      </trkpt>
      <trkpt lat="47.32616" lon="12.959237">
        <time>1970-01-01T00:00:00+00:00</time>
        <ele>1271.0</ele>
      </trkpt>
      <trkpt lat="47.32631" lon="12.958534">
        <time>1970-01-01T00:00:00+00:00</time>
        <ele>1279.0</ele>
      </trkpt>
      <trkpt lat="47.326469" lon="12.958144">
        <time>1970-01-01T00:00:00+00:00</time>
        <ele>1276.0</ele>
      </trkpt>
      <trkpt lat="47.32665" lon="12.957834">
        <time>1970-01-01T00:00:00+00:00</time>
        <ele>1278.0</ele>
      </trkpt>
      <trkpt lat="47.326818" lon="12.957682">
        <time>1970-01-01T00:00:00+00:00</time>
        <ele>1281.0</ele>
      </trkpt>
      <trkpt lat="47.32744" lon="12.957286">
        <time>1970-01-01T00:00:00+00:00</time>
        <ele>1285.0</ele>
      </trkpt>
      <trkpt lat="47.328036" lon="12.956999">
        <time>1970-01-01T00:00:00+00:00</time>
        <ele>1297.0</ele>
      </trkpt>
      <trkpt lat="47.328183" lon="12.956943">
        <time>1970-01-01T00:00:00+00:00</time>
        <ele>1297.0</ele>
      </trkpt>
      <trkpt lat="47.328329" lon="12.956926">
        <time>1970-01-01T00:00:00+00:00</time>
        <ele>1301.0</ele>
      </trkpt>
      <trkpt lat="47.328803" lon="12.956715">
        <time>1970-01-01T00:00:00+00:00</time>
        <ele>1302.0</ele>
      </trkpt>
      <trkpt lat="47.329042" lon="12.956589">
        <time>1970-01-01T00:00:00+00:00</time>
        <ele>1302.0</ele>
      </trkpt>
      <trkpt lat="47.32913" lon="12.956523">
        <time>1970-01-01T00:00:00+00:00</time>
        <ele>1301.0</ele>
      </trkpt>
      <trkpt lat="47.329188" lon="12.956527">
        <time>1970-01-01T00:00:00+00:00</time>
        <ele>1303.0</ele>
      </trkpt>
      <trkpt lat="47.329213" lon="12.95656">
        <time>1970-01-01T00:00:00+00:00</time>
        <ele>1306.0</ele>
      </trkpt>
      <trkpt lat="47.32936" lon="12.956521">
        <time>1970-01-01T00:00:00+00:00</time>
        <ele>1311.0</ele>
      </trkpt>
      <trkpt lat="47.329451" lon="12.95643">
        <time>1970-01-01T00:00:00+00:00</time>
        <ele>1311.0</ele>
      </trkpt>
      <trkpt lat="47.329588" lon="12.956065">
        <time>1970-01-01T00:00:00+00:00</time>
        <ele>1303.0</ele>
      </trkpt>
      <trkpt lat="47.329799" lon="12.955792">
        <time>1970-01-01T00:00:00+00:00</time>
        <ele>1303.0</ele>
      </trkpt>
      <trkpt lat="47.329989" lon="12.955658">
        <time>1970-01-01T00:00:00+00:00</time>
        <ele>1302.0</ele>
      </trkpt>
      <trkpt lat="47.330243" lon="12.955595">
        <time>1970-01-01T00:00:00+00:00</time>
        <ele>1304.0</ele>
      </trkpt>
      <trkpt lat="47.330628" lon="12.955552">
        <time>1970-01-01T00:00:00+00:00</time>
        <ele>1315.0</ele>
      </trkpt>
      <trkpt lat="47.330731" lon="12.955517">
        <time>1970-01-01T00:00:00+00:00</time>
        <ele>1317.0</ele>
      </trkpt>
      <trkpt lat="47.330796" lon="12.955418">
        <time>1970-01-01T00:00:00+00:00</time>
        <ele>1315.0</ele>
      </trkpt>
      <trkpt lat="47.330802" lon="12.955049">
        <time>1970-01-01T00:00:00+00:00</time>
        <ele>1301.0</ele>
      </trkpt>
      <trkpt lat="47.330834" lon="12.954892">
        <time>1970-01-01T00:00:00+00:00</time>
        <ele>1300.0</ele>
      </trkpt>
      <trkpt lat="47.330959" lon="12.954634">
        <time>1970-01-01T00:00:00+00:00</time>
        <ele>1306.0</ele>
      </trkpt>
      <trkpt lat="47.331009" lon="12.954409">
        <time>1970-01-01T00:00:00+00:00</time>
        <ele>1307.0</ele>
      </trkpt>
      <trkpt lat="47.33104" lon="12.954057">
        <time>1970-01-01T00:00:00+00:00</time>
        <ele>1307.0</ele>
      </trkpt>
      <trkpt lat="47.331095" lon="12.953668">
        <time>1970-01-01T00:00:00+00:00</time>
        <ele>1305.0</ele>
      </trkpt>
      <trkpt lat="47.331201" lon="12.953304">
        <time>1970-01-01T00:00:00+00:00</time>
        <ele>1302.0</ele>
      </trkpt>
      <trkpt lat="47.331367" lon="12.952922">
        <time>1970-01-01T00:00:00+00:00</time>
        <ele>1302.0</ele>
      </trkpt>
      <trkpt lat="47.33141" lon="12.952791">
        <time>1970-01-01T00:00:00+00:00</time>
        <ele>1302.0</ele>
      </trkpt>
      <trkpt lat="47.331383" lon="12.952603">
        <time>1970-01-01T00:00:00+00:00</time>
        <ele>1296.0</ele>
      </trkpt>
      <trkpt lat="47.331407" lon="12.952388">
        <time>1970-01-01T00:00:00+00:00</time>
        <ele>1294.0</ele>
      </trkpt>
      <trkpt lat="47.331557" lon="12.952108">
        <time>1970-01-01T00:00:00+00:00</time>
        <ele>1300.0</ele>
      </trkpt>
      <trkpt lat="47.331542" lon="12.951797">
        <time>1970-01-01T00:00:00+00:00</time>
        <ele>1292.0</ele>
      </trkpt>
      <trkpt lat="47.331569" lon="12.95145">
        <time>1970-01-01T00:00:00+00:00</time>
        <ele>1288.0</ele>
      </trkpt>
      <trkpt lat="47.331677" lon="12.951089">
        <time>1970-01-01T00:00:00+00:00</time>
        <ele>1284.0</ele>
      </trkpt>
      <trkpt lat="47.331744" lon="12.950745">
        <time>1970-01-01T00:00:00+00:00</time>
        <ele>1282.0</ele>
      </trkpt>
      <trkpt lat="47.3319" lon="12.950393">
        <time>1970-01-01T00:00:00+00:00</time>
        <ele>1281.0</ele>
      </trkpt>
      <trkpt lat="47.332092" lon="12.950037">
        <time>1970-01-01T00:00:00+00:00</time>
        <ele>1290.0</ele>
      </trkpt>
      <trkpt lat="47.332097" lon="12.94993">
        <time>1970-01-01T00:00:00+00:00</time>
        <ele>1291.0</ele>
      </trkpt>
      <trkpt lat="47.332008" lon="12.949733">
        <time>1970-01-01T00:00:00+00:00</time>
        <ele>1289.0</ele>
      </trkpt>
      <trkpt lat="47.331943" lon="12.949463">
        <time>1970-01-01T00:00:00+00:00</time>
        <ele>1290.0</ele>
      </trkpt>
      <trkpt lat="47.331941" lon="12.949205">
        <time>1970-01-01T00:00:00+00:00</time>
        <ele>1293.0</ele>
      </trkpt>
      <trkpt lat="47.331988" lon="12.948911">
        <time>1970-01-01T00:00:00+00:00</time>
        <ele>1294.0</ele>
      </trkpt>
      <trkpt lat="47.332106" lon="12.94859">
        <time>1970-01-01T00:00:00+00:00</time>
        <ele>1299.0</ele>
      </trkpt>
      <trkpt lat="47.332141" lon="12.947053">
        <time>1970-01-01T00:00:00+00:00</time>
        <ele>1313.0</ele>
      </trkpt>
      <trkpt lat="47.332069" lon="12.946844">
        <time>1970-01-01T00:00:00+00:00</time>
        <ele>1319.0</ele>
      </trkpt>
      <trkpt lat="47.331989" lon="12.94681">
        <time>1970-01-01T00:00:00+00:00</time>
        <ele>1321.0</ele>
      </trkpt>
      <trkpt lat="47.331879" lon="12.946924">
        <time>1970-01-01T00:00:00+00:00</time>
        <ele>1330.0</ele>
      </trkpt>
      <trkpt lat="47.331901" lon="12.947632">
        <time>1970-01-01T00:00:00+00:00</time>
        <ele>1323.0</ele>
      </trkpt>
      <trkpt lat="47.331787" lon="12.948247">
        <time>1970-01-01T00:00:00+00:00</time>
        <ele>1321.0</ele>
      </trkpt>
      <trkpt lat="47.331479" lon="12.949009">
        <time>1970-01-01T00:00:00+00:00</time>
        <ele>1323.0</ele>
      </trkpt>
      <trkpt lat="47.330784" lon="12.950336">
        <time>1970-01-01T00:00:00+00:00</time>
        <ele>1330.0</ele>
      </trkpt>
      <trkpt lat="47.330481" lon="12.950833">
        <time>1970-01-01T00:00:00+00:00</time>
        <ele>1335.0</ele>
      </trkpt>
      <trkpt lat="47.330398" lon="12.950886">
        <time>1970-01-01T00:00:00+00:00</time>
        <ele>1339.0</ele>
      </trkpt>
      <trkpt lat="47.330345" lon="12.950843">
        <time>1970-01-01T00:00:00+00:00</time>
        <ele>1344.0</ele>
      </trkpt>
      <trkpt lat="47.330362" lon="12.950765">
        <time>1970-01-01T00:00:00+00:00</time>
        <ele>1346.0</ele>
      </trkpt>
      <trkpt lat="47.33049" lon="12.950607">
        <time>1970-01-01T00:00:00+00:00</time>
        <ele>1342.0</ele>
      </trkpt>
      <trkpt lat="47.330612" lon="12.950311">
        <time>1970-01-01T00:00:00+00:00</time>
        <ele>1344.0</ele>
      </trkpt>
      <trkpt lat="47.330805" lon="12.949552">
        <time>1970-01-01T00:00:00+00:00</time>
        <ele>1347.0</ele>
      </trkpt>
      <trkpt lat="47.330861" lon="12.949112">
        <time>1970-01-01T00:00:00+00:00</time>
        <ele>1352.0</ele>
      </trkpt>
      <trkpt lat="47.331206" lon="12.947818">
        <time>1970-01-01T00:00:00+00:00</time>
        <ele>1364.0</ele>
      </trkpt>
      <trkpt lat="47.331378" lon="12.947013">
        <time>1970-01-01T00:00:00+00:00</time>
        <ele>1360.0</ele>
      </trkpt>
      <trkpt lat="47.331329" lon="12.946344">
        <time>1970-01-01T00:00:00+00:00</time>
        <ele>1365.0</ele>
      </trkpt>
      <trkpt lat="47.331373" lon="12.945955">
        <time>1970-01-01T00:00:00+00:00</time>
        <ele>1365.0</ele>
      </trkpt>
      <trkpt lat="47.331489" lon="12.945443">
        <time>1970-01-01T00:00:00+00:00</time>
        <ele>1364.0</ele>
      </trkpt>
      <trkpt lat="47.331467" lon="12.945028">
        <time>1970-01-01T00:00:00+00:00</time>
        <ele>1376.0</ele>
      </trkpt>
      <trkpt lat="47.331567" lon="12.944581">
        <time>1970-01-01T00:00:00+00:00</time>
        <ele>1377.0</ele>
      </trkpt>
      <trkpt lat="47.33179" lon="12.944141">
        <time>1970-01-01T00:00:00+00:00</time>
        <ele>1377.0</ele>
      </trkpt>
      <trkpt lat="47.331923" lon="12.943816">
        <time>1970-01-01T00:00:00+00:00</time>
        <ele>1377.0</ele>
      </trkpt>
      <trkpt lat="47.33194" lon="12.943616">
        <time>1970-01-01T00:00:00+00:00</time>
        <ele>1381.0</ele>
      </trkpt>
      <trkpt lat="47.331925" lon="12.943516">
        <time>1970-01-01T00:00:00+00:00</time>
        <ele>1385.0</ele>
      </trkpt>
      <trkpt lat="47.331884" lon="12.943516">
        <time>1970-01-01T00:00:00+00:00</time>
        <ele>1388.0</ele>
      </trkpt>
      <trkpt lat="47.331712" lon="12.94393">
        <time>1970-01-01T00:00:00+00:00</time>
        <ele>1386.0</ele>
      </trkpt>
      <trkpt lat="47.331307" lon="12.944521">
        <time>1970-01-01T00:00:00+00:00</time>
        <ele>1399.0</ele>
      </trkpt>
      <trkpt lat="47.331089" lon="12.94515">
        <time>1970-01-01T00:00:00+00:00</time>
        <ele>1402.0</ele>
      </trkpt>
      <trkpt lat="47.330949" lon="12.945508">
        <time>1970-01-01T00:00:00+00:00</time>
        <ele>1401.0</ele>
      </trkpt>
      <trkpt lat="47.330796" lon="12.946305">
        <time>1970-01-01T00:00:00+00:00</time>
        <ele>1403.0</ele>
      </trkpt>
      <trkpt lat="47.330648" lon="12.946849">
        <time>1970-01-01T00:00:00+00:00</time>
        <ele>1408.0</ele>
      </trkpt>
      <trkpt lat="47.330384" lon="12.947464">
        <time>1970-01-01T00:00:00+00:00</time>
        <ele>1414.0</ele>
      </trkpt>
      <trkpt lat="47.330156" lon="12.948054">
        <time>1970-01-01T00:00:00+00:00</time>
        <ele>1414.0</ele>
      </trkpt>
      <trkpt lat="47.330144" lon="12.948272">
        <time>1970-01-01T00:00:00+00:00</time>
        <ele>1413.0</ele>
      </trkpt>
      <trkpt lat="47.330095" lon="12.948415">
        <time>1970-01-01T00:00:00+00:00</time>
        <ele>1414.0</ele>
      </trkpt>
      <trkpt lat="47.329994" lon="12.948512">
        <time>1970-01-01T00:00:00+00:00</time>
        <ele>1417.0</ele>
      </trkpt>
      <trkpt lat="47.329918" lon="12.94849">
        <time>1970-01-01T00:00:00+00:00</time>
        <ele>1420.0</ele>
      </trkpt>
      <trkpt lat="47.329889" lon="12.948386">
        <time>1970-01-01T00:00:00+00:00</time>
        <ele>1423.0</ele>
      </trkpt>
      <trkpt lat="47.329909" lon="12.948147">
        <time>1970-01-01T00:00:00+00:00</time>
        <ele>1425.0</ele>
      </trkpt>
      <trkpt lat="47.329967" lon="12.947743">
        <time>1970-01-01T00:00:00+00:00</time>
        <ele>1425.0</ele>
      </trkpt>
      <trkpt lat="47.330057" lon="12.947264">
        <time>1970-01-01T00:00:00+00:00</time>
        <ele>1429.0</ele>
      </trkpt>
      <trkpt lat="47.330066" lon="12.946952">
        <time>1970-01-01T00:00:00+00:00</time>
        <ele>1434.0</ele>
      </trkpt>
      <trkpt lat="47.330195" lon="12.94657">
        <time>1970-01-01T00:00:00+00:00</time>
        <ele>1434.0</ele>
      </trkpt>
      <trkpt lat="47.330194" lon="12.946206">
        <time>1970-01-01T00:00:00+00:00</time>
        <ele>1438.0</ele>
      </trkpt>
      <trkpt lat="47.33018" lon="12.946098">
        <time>1970-01-01T00:00:00+00:00</time>
        <ele>1440.0</ele>
      </trkpt>
      <trkpt lat="47.330248" lon="12.94569">
        <time>1970-01-01T00:00:00+00:00</time>
        <ele>1441.0</ele>
      </trkpt>
      <trkpt lat="47.330253" lon="12.945411">
        <time>1970-01-01T00:00:00+00:00</time>
        <ele>1445.0</ele>
      </trkpt>
      <trkpt lat="47.330253" lon="12.945411">
        <time>1970-01-01T00:00:00+00:00</time>
        <ele>1445.0</ele>
      </trkpt>
      <trkpt lat="47.330248" lon="12.94569">
        <time>1970-01-01T00:00:00+00:00</time>
        <ele>1441.0</ele>
      </trkpt>
      <trkpt lat="47.33018" lon="12.946098">
        <time>1970-01-01T00:00:00+00:00</time>
        <ele>1440.0</ele>
      </trkpt>
      <trkpt lat="47.330194" lon="12.946206">
        <time>1970-01-01T00:00:00+00:00</time>
        <ele>1438.0</ele>
      </trkpt>
      <trkpt lat="47.330195" lon="12.94657">
        <time>1970-01-01T00:00:00+00:00</time>
        <ele>1434.0</ele>
      </trkpt>
      <trkpt lat="47.330066" lon="12.946952">
        <time>1970-01-01T00:00:00+00:00</time>
        <ele>1434.0</ele>
      </trkpt>
      <trkpt lat="47.330057" lon="12.947264">
        <time>1970-01-01T00:00:00+00:00</time>
        <ele>1429.0</ele>
      </trkpt>
      <trkpt lat="47.329967" lon="12.947743">
        <time>1970-01-01T00:00:00+00:00</time>
        <ele>1425.0</ele>
      </trkpt>
      <trkpt lat="47.329909" lon="12.948147">
        <time>1970-01-01T00:00:00+00:00</time>
        <ele>1425.0</ele>
      </trkpt>
      <trkpt lat="47.329889" lon="12.948386">
        <time>1970-01-01T00:00:00+00:00</time>
        <ele>1423.0</ele>
      </trkpt>
      <trkpt lat="47.329918" lon="12.94849">
        <time>1970-01-01T00:00:00+00:00</time>
        <ele>1420.0</ele>
      </trkpt>
      <trkpt lat="47.329994" lon="12.948512">
        <time>1970-01-01T00:00:00+00:00</time>
        <ele>1417.0</ele>
      </trkpt>
      <trkpt lat="47.330095" lon="12.948415">
        <time>1970-01-01T00:00:00+00:00</time>
        <ele>1414.0</ele>
      </trkpt>
      <trkpt lat="47.330144" lon="12.948272">
        <time>1970-01-01T00:00:00+00:00</time>
        <ele>1413.0</ele>
      </trkpt>
      <trkpt lat="47.330156" lon="12.948054">
        <time>1970-01-01T00:00:00+00:00</time>
        <ele>1414.0</ele>
      </trkpt>
      <trkpt lat="47.330384" lon="12.947464">
        <time>1970-01-01T00:00:00+00:00</time>
        <ele>1414.0</ele>
      </trkpt>
      <trkpt lat="47.330648" lon="12.946849">
        <time>1970-01-01T00:00:00+00:00</time>
        <ele>1408.0</ele>
      </trkpt>
      <trkpt lat="47.330796" lon="12.946305">
        <time>1970-01-01T00:00:00+00:00</time>
        <ele>1403.0</ele>
      </trkpt>
      <trkpt lat="47.330949" lon="12.945508">
        <time>1970-01-01T00:00:00+00:00</time>
        <ele>1401.0</ele>
      </trkpt>
      <trkpt lat="47.331089" lon="12.94515">
        <time>1970-01-01T00:00:00+00:00</time>
        <ele>1402.0</ele>
      </trkpt>
      <trkpt lat="47.331307" lon="12.944521">
        <time>1970-01-01T00:00:00+00:00</time>
        <ele>1399.0</ele>
      </trkpt>
      <trkpt lat="47.331712" lon="12.94393">
        <time>1970-01-01T00:00:00+00:00</time>
        <ele>1386.0</ele>
      </trkpt>
      <trkpt lat="47.331884" lon="12.943516">
        <time>1970-01-01T00:00:00+00:00</time>
        <ele>1388.0</ele>
      </trkpt>
      <trkpt lat="47.331925" lon="12.943516">
        <time>1970-01-01T00:00:00+00:00</time>
        <ele>1385.0</ele>
      </trkpt>
      <trkpt lat="47.33194" lon="12.943616">
        <time>1970-01-01T00:00:00+00:00</time>
        <ele>1381.0</ele>
      </trkpt>
      <trkpt lat="47.331923" lon="12.943816">
        <time>1970-01-01T00:00:00+00:00</time>
        <ele>1377.0</ele>
      </trkpt>
      <trkpt lat="47.33179" lon="12.944141">
        <time>1970-01-01T00:00:00+00:00</time>
        <ele>1377.0</ele>
      </trkpt>
      <trkpt lat="47.331567" lon="12.944581">
        <time>1970-01-01T00:00:00+00:00</time>
        <ele>1377.0</ele>
      </trkpt>
      <trkpt lat="47.331467" lon="12.945028">
        <time>1970-01-01T00:00:00+00:00</time>
        <ele>1376.0</ele>
      </trkpt>
      <trkpt lat="47.331489" lon="12.945443">
        <time>1970-01-01T00:00:00+00:00</time>
        <ele>1364.0</ele>
      </trkpt>
      <trkpt lat="47.331373" lon="12.945955">
        <time>1970-01-01T00:00:00+00:00</time>
        <ele>1365.0</ele>
      </trkpt>
      <trkpt lat="47.331329" lon="12.946344">
        <time>1970-01-01T00:00:00+00:00</time>
        <ele>1365.0</ele>
      </trkpt>
      <trkpt lat="47.331378" lon="12.947013">
        <time>1970-01-01T00:00:00+00:00</time>
        <ele>1360.0</ele>
      </trkpt>
      <trkpt lat="47.331206" lon="12.947818">
        <time>1970-01-01T00:00:00+00:00</time>
        <ele>1364.0</ele>
      </trkpt>
      <trkpt lat="47.330861" lon="12.949112">
        <time>1970-01-01T00:00:00+00:00</time>
        <ele>1352.0</ele>
      </trkpt>
      <trkpt lat="47.330805" lon="12.949552">
        <time>1970-01-01T00:00:00+00:00</time>
        <ele>1347.0</ele>
      </trkpt>
      <trkpt lat="47.330612" lon="12.950311">
        <time>1970-01-01T00:00:00+00:00</time>
        <ele>1344.0</ele>
      </trkpt>
      <trkpt lat="47.33049" lon="12.950607">
        <time>1970-01-01T00:00:00+00:00</time>
        <ele>1342.0</ele>
      </trkpt>
      <trkpt lat="47.330362" lon="12.950765">
        <time>1970-01-01T00:00:00+00:00</time>
        <ele>1346.0</ele>
      </trkpt>
      <trkpt lat="47.330345" lon="12.950843">
        <time>1970-01-01T00:00:00+00:00</time>
        <ele>1344.0</ele>
      </trkpt>
      <trkpt lat="47.330398" lon="12.950886">
        <time>1970-01-01T00:00:00+00:00</time>
        <ele>1339.0</ele>
      </trkpt>
      <trkpt lat="47.330481" lon="12.950833">
        <time>1970-01-01T00:00:00+00:00</time>
        <ele>1335.0</ele>
      </trkpt>
      <trkpt lat="47.330784" lon="12.950336">
        <time>1970-01-01T00:00:00+00:00</time>
        <ele>1330.0</ele>
      </trkpt>
      <trkpt lat="47.331479" lon="12.949009">
        <time>1970-01-01T00:00:00+00:00</time>
        <ele>1323.0</ele>
      </trkpt>
      <trkpt lat="47.331787" lon="12.948247">
        <time>1970-01-01T00:00:00+00:00</time>
        <ele>1321.0</ele>
      </trkpt>
      <trkpt lat="47.331901" lon="12.947632">
        <time>1970-01-01T00:00:00+00:00</time>
        <ele>1323.0</ele>
      </trkpt>
      <trkpt lat="47.331879" lon="12.946924">
        <time>1970-01-01T00:00:00+00:00</time>
        <ele>1330.0</ele>
      </trkpt>
      <trkpt lat="47.331989" lon="12.94681">
        <time>1970-01-01T00:00:00+00:00</time>
        <ele>1321.0</ele>
      </trkpt>
      <trkpt lat="47.332069" lon="12.946844">
        <time>1970-01-01T00:00:00+00:00</time>
        <ele>1319.0</ele>
      </trkpt>
      <trkpt lat="47.332141" lon="12.947053">
        <time>1970-01-01T00:00:00+00:00</time>
        <ele>1313.0</ele>
      </trkpt>
      <trkpt lat="47.332106" lon="12.94859">
        <time>1970-01-01T00:00:00+00:00</time>
        <ele>1299.0</ele>
      </trkpt>
      <trkpt lat="47.331988" lon="12.948911">
        <time>1970-01-01T00:00:00+00:00</time>
        <ele>1294.0</ele>
      </trkpt>
      <trkpt lat="47.331941" lon="12.949205">
        <time>1970-01-01T00:00:00+00:00</time>
        <ele>1293.0</ele>
      </trkpt>
      <trkpt lat="47.331943" lon="12.949463">
        <time>1970-01-01T00:00:00+00:00</time>
        <ele>1290.0</ele>
      </trkpt>
      <trkpt lat="47.332008" lon="12.949733">
        <time>1970-01-01T00:00:00+00:00</time>
        <ele>1289.0</ele>
      </trkpt>
      <trkpt lat="47.332097" lon="12.94993">
        <time>1970-01-01T00:00:00+00:00</time>
        <ele>1291.0</ele>
      </trkpt>
      <trkpt lat="47.332092" lon="12.950037">
        <time>1970-01-01T00:00:00+00:00</time>
        <ele>1290.0</ele>
      </trkpt>
      <trkpt lat="47.3319" lon="12.950393">
        <time>1970-01-01T00:00:00+00:00</time>
        <ele>1281.0</ele>
      </trkpt>
      <trkpt lat="47.331744" lon="12.950745">
        <time>1970-01-01T00:00:00+00:00</time>
        <ele>1282.0</ele>
      </trkpt>
      <trkpt lat="47.331677" lon="12.951089">
        <time>1970-01-01T00:00:00+00:00</time>
        <ele>1284.0</ele>
      </trkpt>
      <trkpt lat="47.331569" lon="12.95145">
        <time>1970-01-01T00:00:00+00:00</time>
        <ele>1288.0</ele>
      </trkpt>
      <trkpt lat="47.331542" lon="12.951797">
        <time>1970-01-01T00:00:00+00:00</time>
        <ele>1292.0</ele>
      </trkpt>
      <trkpt lat="47.331557" lon="12.952108">
        <time>1970-01-01T00:00:00+00:00</time>
        <ele>1300.0</ele>
      </trkpt>
      <trkpt lat="47.331407" lon="12.952388">
        <time>1970-01-01T00:00:00+00:00</time>
        <ele>1294.0</ele>
      </trkpt>
      <trkpt lat="47.331383" lon="12.952603">
        <time>1970-01-01T00:00:00+00:00</time>
        <ele>1296.0</ele>
      </trkpt>
      <trkpt lat="47.33141" lon="12.952791">
        <time>1970-01-01T00:00:00+00:00</time>
        <ele>1302.0</ele>
      </trkpt>
      <trkpt lat="47.331367" lon="12.952922">
        <time>1970-01-01T00:00:00+00:00</time>
        <ele>1302.0</ele>
      </trkpt>
      <trkpt lat="47.331201" lon="12.953304">
        <time>1970-01-01T00:00:00+00:00</time>
        <ele>1302.0</ele>
      </trkpt>
      <trkpt lat="47.331095" lon="12.953668">
        <time>1970-01-01T00:00:00+00:00</time>
        <ele>1305.0</ele>
      </trkpt>
      <trkpt lat="47.33104" lon="12.954057">
        <time>1970-01-01T00:00:00+00:00</time>
        <ele>1307.0</ele>
      </trkpt>
      <trkpt lat="47.331009" lon="12.954409">
        <time>1970-01-01T00:00:00+00:00</time>
        <ele>1307.0</ele>
      </trkpt>
      <trkpt lat="47.330959" lon="12.954634">
        <time>1970-01-01T00:00:00+00:00</time>
        <ele>1306.0</ele>
      </trkpt>
      <trkpt lat="47.330834" lon="12.954892">
        <time>1970-01-01T00:00:00+00:00</time>
        <ele>1300.0</ele>
      </trkpt>
      <trkpt lat="47.330802" lon="12.955049">
        <time>1970-01-01T00:00:00+00:00</time>
        <ele>1301.0</ele>
      </trkpt>
      <trkpt lat="47.330796" lon="12.955418">
        <time>1970-01-01T00:00:00+00:00</time>
        <ele>1315.0</ele>
      </trkpt>
      <trkpt lat="47.330731" lon="12.955517">
        <time>1970-01-01T00:00:00+00:00</time>
        <ele>1317.0</ele>
      </trkpt>
      <trkpt lat="47.330628" lon="12.955552">
        <time>1970-01-01T00:00:00+00:00</time>
        <ele>1315.0</ele>
      </trkpt>
      <trkpt lat="47.330243" lon="12.955595">
        <time>1970-01-01T00:00:00+00:00</time>
        <ele>1304.0</ele>
      </trkpt>
      <trkpt lat="47.329989" lon="12.955658">
        <time>1970-01-01T00:00:00+00:00</time>
        <ele>1302.0</ele>
      </trkpt>
      <trkpt lat="47.329799" lon="12.955792">
        <time>1970-01-01T00:00:00+00:00</time>
        <ele>1303.0</ele>
      </trkpt>
      <trkpt lat="47.329588" lon="12.956065">
        <time>1970-01-01T00:00:00+00:00</time>
        <ele>1303.0</ele>
      </trkpt>
      <trkpt lat="47.329451" lon="12.95643">
        <time>1970-01-01T00:00:00+00:00</time>
        <ele>1311.0</ele>
      </trkpt>
      <trkpt lat="47.32936" lon="12.956521">
        <time>1970-01-01T00:00:00+00:00</time>
        <ele>1311.0</ele>
      </trkpt>
      <trkpt lat="47.329213" lon="12.95656">
        <time>1970-01-01T00:00:00+00:00</time>
        <ele>1306.0</ele>
      </trkpt>
      <trkpt lat="47.329188" lon="12.956527">
        <time>1970-01-01T00:00:00+00:00</time>
        <ele>1303.0</ele>
      </trkpt>
      <trkpt lat="47.32913" lon="12.956523">
        <time>1970-01-01T00:00:00+00:00</time>
        <ele>1301.0</ele>
      </trkpt>
      <trkpt lat="47.329042" lon="12.956589">
        <time>1970-01-01T00:00:00+00:00</time>
        <ele>1302.0</ele>
      </trkpt>
      <trkpt lat="47.328803" lon="12.956715">
        <time>1970-01-01T00:00:00+00:00</time>
        <ele>1302.0</ele>
      </trkpt>
      <trkpt lat="47.328329" lon="12.956926">
        <time>1970-01-01T00:00:00+00:00</time>
        <ele>1301.0</ele>
      </trkpt>
      <trkpt lat="47.328183" lon="12.956943">
        <time>1970-01-01T00:00:00+00:00</time>
        <ele>1297.0</ele>
      </trkpt>
      <trkpt lat="47.328036" lon="12.956999">
        <time>1970-01-01T00:00:00+00:00</time>
        <ele>1297.0</ele>
      </trkpt>
      <trkpt lat="47.32744" lon="12.957286">
        <time>1970-01-01T00:00:00+00:00</time>
        <ele>1285.0</ele>
      </trkpt>
      <trkpt lat="47.326818" lon="12.957682">
        <time>1970-01-01T00:00:00+00:00</time>
        <ele>1281.0</ele>
      </trkpt>
      <trkpt lat="47.32665" lon="12.957834">
        <time>1970-01-01T00:00:00+00:00</time>
        <ele>1278.0</ele>
      </trkpt>
      <trkpt lat="47.326469" lon="12.958144">
        <time>1970-01-01T00:00:00+00:00</time>
        <ele>1276.0</ele>
      </trkpt>
      <trkpt lat="47.32631" lon="12.958534">
        <time>1970-01-01T00:00:00+00:00</time>
        <ele>1279.0</ele>
      </trkpt>
      <trkpt lat="47.32616" lon="12.959237">
        <time>1970-01-01T00:00:00+00:00</time>
        <ele>1271.0</ele>
      </trkpt>
      <trkpt lat="47.326019" lon="12.959604">
        <time>1970-01-01T00:00:00+00:00</time>
        <ele>1262.0</ele>
      </trkpt>
      <trkpt lat="47.325977" lon="12.959996">
        <time>1970-01-01T00:00:00+00:00</time>
        <ele>1263.0</ele>
      </trkpt>
      <trkpt lat="47.325878" lon="12.960353">
        <time>1970-01-01T00:00:00+00:00</time>
        <ele>1260.0</ele>
      </trkpt>
      <trkpt lat="47.325807" lon="12.960544">
        <time>1970-01-01T00:00:00+00:00</time>
        <ele>1257.0</ele>
      </trkpt>
      <trkpt lat="47.325583" lon="12.960792">
        <time>1970-01-01T00:00:00+00:00</time>
        <ele>1246.0</ele>
      </trkpt>
      <trkpt lat="47.325498" lon="12.96095">
        <time>1970-01-01T00:00:00+00:00</time>
        <ele>1245.0</ele>
      </trkpt>
      <trkpt lat="47.325379" lon="12.961403">
        <time>1970-01-01T00:00:00+00:00</time>
        <ele>1244.0</ele>
      </trkpt>
      <trkpt lat="47.325359" lon="12.961749">
        <time>1970-01-01T00:00:00+00:00</time>
        <ele>1244.0</ele>
      </trkpt>
      <trkpt lat="47.325164" lon="12.96346">
        <time>1970-01-01T00:00:00+00:00</time>
        <ele>1228.0</ele>
      </trkpt>
      <trkpt lat="47.32518" lon="12.963833">
        <time>1970-01-01T00:00:00+00:00</time>
        <ele>1225.0</ele>
      </trkpt>
      <trkpt lat="47.325122" lon="12.964183">
        <time>1970-01-01T00:00:00+00:00</time>
        <ele>1220.0</ele>
      </trkpt>
      <trkpt lat="47.32516" lon="12.964516">
        <time>1970-01-01T00:00:00+00:00</time>
        <ele>1219.0</ele>
      </trkpt>
      <trkpt lat="47.325176" lon="12.96518">
        <time>1970-01-01T00:00:00+00:00</time>
        <ele>1215.0</ele>
      </trkpt>
      <trkpt lat="47.325227" lon="12.96546">
        <time>1970-01-01T00:00:00+00:00</time>
        <ele>1215.0</ele>
      </trkpt>
      <trkpt lat="47.325285" lon="12.966074">
        <time>1970-01-01T00:00:00+00:00</time>
        <ele>1214.0</ele>
      </trkpt>
      <trkpt lat="47.325267" lon="12.966375">
        <time>1970-01-01T00:00:00+00:00</time>
        <ele>1212.0</ele>
      </trkpt>
      <trkpt lat="47.325263" lon="12.966887">
        <time>1970-01-01T00:00:00+00:00</time>
        <ele>1209.0</ele>
      </trkpt>
      <trkpt lat="47.325279" lon="12.96722">
        <time>1970-01-01T00:00:00+00:00</time>
        <ele>1206.0</ele>
      </trkpt>
      <trkpt lat="47.325384" lon="12.96791">
        <time>1970-01-01T00:00:00+00:00</time>
        <ele>1203.0</ele>
      </trkpt>
      <trkpt lat="47.325475" lon="12.968277">
        <time>1970-01-01T00:00:00+00:00</time>
        <ele>1202.0</ele>
      </trkpt>
      <trkpt lat="47.325482" lon="12.968359">
        <time>1970-01-01T00:00:00+00:00</time>
        <ele>1201.0</ele>
      </trkpt>
      <trkpt lat="47.325462" lon="12.968399">
        <time>1970-01-01T00:00:00+00:00</time>
        <ele>1199.0</ele>
      </trkpt>
      <trkpt lat="47.325424" lon="12.968418">
        <time>1970-01-01T00:00:00+00:00</time>
        <ele>1197.0</ele>
      </trkpt>
      <trkpt lat="47.325379" lon="12.968385">
        <time>1970-01-01T00:00:00+00:00</time>
        <ele>1196.0</ele>
      </trkpt>
      <trkpt lat="47.325113" lon="12.967705">
        <time>1970-01-01T00:00:00+00:00</time>
        <ele>1195.0</ele>
      </trkpt>
      <trkpt lat="47.324909" lon="12.967246">
        <time>1970-01-01T00:00:00+00:00</time>
        <ele>1193.0</ele>
      </trkpt>
      <trkpt lat="47.324511" lon="12.966213">
        <time>1970-01-01T00:00:00+00:00</time>
        <ele>1184.0</ele>
      </trkpt>
      <trkpt lat="47.323974" lon="12.965167">
        <time>1970-01-01T00:00:00+00:00</time>
        <ele>1173.0</ele>
      </trkpt>
      <trkpt lat="47.323898" lon="12.964939">
        <time>1970-01-01T00:00:00+00:00</time>
        <ele>1170.0</ele>
      </trkpt>
      <trkpt lat="47.323806" lon="12.964047">
        <time>1970-01-01T00:00:00+00:00</time>
        <ele>1162.0</ele>
      </trkpt>
      <trkpt lat="47.323802" lon="12.963641">
        <time>1970-01-01T00:00:00+00:00</time>
        <ele>1160.0</ele>
      </trkpt>
      <trkpt lat="47.323777" lon="12.963512">
        <time>1970-01-01T00:00:00+00:00</time>
        <ele>1160.0</ele>
      </trkpt>
      <trkpt lat="47.323719" lon="12.963476">
        <time>1970-01-01T00:00:00+00:00</time>
        <ele>1158.0</ele>
      </trkpt>
      <trkpt lat="47.323693" lon="12.963486">
        <time>1970-01-01T00:00:00+00:00</time>
        <ele>1157.0</ele>
      </trkpt>
      <trkpt lat="47.32364" lon="12.963506">
        <time>1970-01-01T00:00:00+00:00</time>
        <ele>1155.0</ele>
      </trkpt>
      <trkpt lat="47.323564" lon="12.963648">
        <time>1970-01-01T00:00:00+00:00</time>
        <ele>1152.0</ele>
      </trkpt>
      <trkpt lat="47.323434" lon="12.964037">
        <time>1970-01-01T00:00:00+00:00</time>
        <ele>1149.0</ele>
      </trkpt>
      <trkpt lat="47.323419" lon="12.964275">
        <time>1970-01-01T00:00:00+00:00</time>
        <ele>1151.0</ele>
      </trkpt>
      <trkpt lat="47.323437" lon="12.964589">
        <time>1970-01-01T00:00:00+00:00</time>
        <ele>1153.0</ele>
      </trkpt>
      <trkpt lat="47.323412" lon="12.96545">
        <time>1970-01-01T00:00:00+00:00</time>
        <ele>1145.0</ele>
      </trkpt>
      <trkpt lat="47.323488" lon="12.965797">
        <time>1970-01-01T00:00:00+00:00</time>
        <ele>1144.0</ele>
      </trkpt>
      <trkpt lat="47.323508" lon="12.966068">
        <time>1970-01-01T00:00:00+00:00</time>
        <ele>1143.0</ele>
      </trkpt>
      <trkpt lat="47.323481" lon="12.968072">
        <time>1970-01-01T00:00:00+00:00</time>
        <ele>1111.0</ele>
      </trkpt>
      <trkpt lat="47.323513" lon="12.968475">
        <time>1970-01-01T00:00:00+00:00</time>
        <ele>1108.0</ele>
      </trkpt>
      <trkpt lat="47.323562" lon="12.968795">
        <time>1970-01-01T00:00:00+00:00</time>
        <ele>1108.0</ele>
      </trkpt>
      <trkpt lat="47.32354" lon="12.969082">
        <time>1970-01-01T00:00:00+00:00</time>
        <ele>1104.0</ele>
      </trkpt>
      <trkpt lat="47.323464" lon="12.969524">
        <time>1970-01-01T00:00:00+00:00</time>
        <ele>1096.0</ele>
      </trkpt>
      <trkpt lat="47.323457" lon="12.969756">
        <time>1970-01-01T00:00:00+00:00</time>
        <ele>1093.0</ele>
      </trkpt>
      <trkpt lat="47.323477" lon="12.969858">
        <time>1970-01-01T00:00:00+00:00</time>
        <ele>1093.0</ele>
      </trkpt>
      <trkpt lat="47.323567" lon="12.970066">
        <time>1970-01-01T00:00:00+00:00</time>
        <ele>1096.0</ele>
      </trkpt>
      <trkpt lat="47.323609" lon="12.970215">
        <time>1970-01-01T00:00:00+00:00</time>
        <ele>1096.0</ele>
      </trkpt>
      <trkpt lat="47.323627" lon="12.970373">
        <time>1970-01-01T00:00:00+00:00</time>
        <ele>1094.0</ele>
      </trkpt>
      <trkpt lat="47.323654" lon="12.971538">
        <time>1970-01-01T00:00:00+00:00</time>
        <ele>1082.0</ele>
      </trkpt>
      <trkpt lat="47.323598" lon="12.971921">
        <time>1970-01-01T00:00:00+00:00</time>
        <ele>1078.0</ele>
      </trkpt>
      <trkpt lat="47.323605" lon="12.972195">
        <time>1970-01-01T00:00:00+00:00</time>
        <ele>1078.0</ele>
      </trkpt>
      <trkpt lat="47.3236" lon="12.972239">
        <time>1970-01-01T00:00:00+00:00</time>
        <ele>1077.0</ele>
      </trkpt>
      <trkpt lat="47.323593" lon="12.972559">
        <time>1970-01-01T00:00:00+00:00</time>
        <ele>1075.0</ele>
      </trkpt>
      <trkpt lat="47.323654" lon="12.9728">
        <time>1970-01-01T00:00:00+00:00</time>
        <ele>1075.0</ele>
      </trkpt>
      <trkpt lat="47.323647" lon="12.972895">
        <time>1970-01-01T00:00:00+00:00</time>
        <ele>1074.0</ele>
      </trkpt>
      <trkpt lat="47.323575" lon="12.973249">
        <time>1970-01-01T00:00:00+00:00</time>
        <ele>1071.0</ele>
      </trkpt>
      <trkpt lat="47.323478" lon="12.974072">
        <time>1970-01-01T00:00:00+00:00</time>
        <ele>1066.0</ele>
      </trkpt>
      <trkpt lat="47.323425" lon="12.974212">
        <time>1970-01-01T00:00:00+00:00</time>
        <ele>1065.0</ele>
      </trkpt>
      <trkpt lat="47.323137" lon="12.974491">
        <time>1970-01-01T00:00:00+00:00</time>
        <ele>1064.0</ele>
      </trkpt>
      <trkpt lat="47.323134" lon="12.974494">
        <time>1970-01-01T00:00:00+00:00</time>
        <ele>1064.0</ele>
      </trkpt>
    </trkseg>
  </trk>
</gpx>
